Tracking 20721 objects as of 2-Jun-2020
HD Live streaming from Space Station
objects crossing your sky now

SL-3 R/B

Track SL-3 R/B now!
10-day predictions


NORAD ID: 14453
Int'l Code: 1983-109B
Perigee: 741.2 km
Apogee: 891.8 km
Inclination: 81.2 °
Period: 101.1 minutes
Semi major axis: 7187 km
RCS: 6.0066 m2 (large)
Launch date: October 28, 1983
Source: Commonwealth of Independent States (former USSR) (CIS)
Launch site: PLESETSK MISSILE AND SPACE COMPLEX (PKMTR)

Note: This is a ROCKET BODY
aabbcc
Your satellite tracking list
Your tracking list is empty




NASA's NSSDC Master Catalog

Two Line Element Set (TLE):
1 14453U 83109B   20151.83396780 +.00000039 +00000-0 +10693-4 0  9996
2 14453 081.1665 101.1388 0104758 182.3751 177.6946 14.24729043901040
Source of the keplerian elements: AFSPC